Location: Banios
(43.0451°N, 0.2335°E)
Time: 20:31:01
(UTC+00:00)

BREEZE-M DEB (TANK) - Pass Details

Date: 25 January 2021
Orbit: 289 x 15391 km, 49.3° (Epoch: 28 February)

Event Time Altitude Azimuth Distance (km) Brightness Sun altitude
Exits shadow 05:52:03 19° 3° (N) 783 3.5 -16.2°
Drops below altitude 10° 05:53:47 10° 52° (NE) 1,302 5.3 -15.9°
Sets 05:56:36 0° 71° (ENE) 2,667 7.4 -15.4°
